Location: Lafig�re
(44.4503°N, 4.0357°E)
Time: 16:18:01
(UTC+00:00)

MetOp-A - Pass Details

Date: 24 September 2020
Orbit: 820 x 821 km, 98.5° (Epoch: 26 October)

Event Time Altitude Azimuth Distance (km) Brightness Sun altitude
Exits shadow 19:40:20 34° 165° (SSE) 1,337 4.9 -22.4°
Maximum altitude 19:42:48 90° 263° (W) 827 4.0 -22.8°
Drops below altitude 10° 19:48:12 10° 346° (NNW) 2,427 7.0 -23.6°
Sets 19:50:33 0° 347° (NNW) 3,364 7.8 -24.0°
